Theta_e
288 288 289 289 289 289 289 289 288 288 288 288 288 288 288 287 287 287 287 286 286 286 286 286 285 286 285 285 285 285 285 285 285 284 284 284 284 283 283 283 283 283
288 289 289 289 289 288 289 289 289 289 288 288 288 288 287 287 287 287 286 286 286 286 286 286 286 286 286 285 285 285 285 285 285 284 284 284 284 283 283 283 283 282
288 289 289 289 289 288 288 288 288 289 289 288 288 287 287 287 286 286 286 286 286 286 286 286 286 286 286 285 285 285 285 285 284 284 284 284 283 283 283 283 282 282
288 289 289 289 288 288 288 288 288 288 288 288 287 287 287 286 286 286 286 286 286 286 286 286 286 285 285 285 285 285 284 284 284 284 283 283 283 283 283 282 282 282
288 288 288 288 288 288 288 289 289 288 288 287 287 287 286 286 286 286 286 286 286 286 286 286 285 285 285 285 285 284 284 284 283 283 283 283 283 282 282 282 282 282
288 288 288 288 288 288 289 289 288 288 288 287 287 286 286 286 286 286 286 286 286 286 286 285 285 285 285 285 284 284 284 283 283 283 282 283 282 282 282 282 282 282
288 288 288 288 288 288 289 288 288 288 287 287 286 286 286 286 286 286 286 286 286 286 285 285 285 285 285 284 284 284 283 283 282 282 282 282 282 282 282 282 281 281
288 288 288 288 288 288 288 288 287 287 287 287 286 286 286 286 286 286 286 286 285 285 285 285 285 284 284 284 284 283 283 283 282 282 282 282 282 281 281 281 281 280
289 288 288 288 288 288 288 288 287 287 287 286 286 286 286 285 286 286 285 285 285 285 285 285 284 284 284 284 284 283 283 282 282 282 282 281 281 281 281 280 280 280
289 288 288 288 288 288 287 287 287 286 286 286 286 286 286 285 285 285 285 285 285 285 285 285 285 285 285 284 284 284 283 282 282 281 281 281 280 280 280 280 280 279
288 288 288 288 288 287 287 287 287 286 286 286 286 286 285 285 285 285 285 285 285 285 285 285 285 285 285 285 285 284 283 282 281 281 281 280 280 280 280 279 279 279
288 287 287 287 287 287 287 287 286 286 286 286 286 286 285 285 285 284 284 284 284 285 285 286 286 286 286 286 285 284 283 282 281 280 280 280 280 279 279 279 279 279
287 287 287 287 287 287 287 286 286 286 286 285 285 285 285 285 284 284 284 284 284 285 285 286 286 286 286 285 284 283 282 281 280 280 280 279 279 279 279 278 278 278
287 287 287 287 287 287 286 286 286 286 285 285 285 285 285 285 284 284 284 284 284 285 286 286 286 286 285 284 284 283 281 281 280 280 279 279 279 278 278 278 278 278
286 286 287 287 287 286 286 286 286 285 285 285 285 285 285 285 285 285 285 284 284 285 286 286 286 285 284 284 283 282 281 280 280 279 279 278 278 278 278 278 278 278
286 286 286 286 286 286 286 286 285 285 285 285 285 284 284 285 285 285 285 285 285 286 286 285 285 284 284 283 282 281 281 280 280 279 279 278 278 278 278 278 278 277
286 286 286 286 286 286 286 286 285 285 285 285 284 284 284 285 285 285 285 285 285 286 285 285 284 284 284 283 282 281 281 281 280 280 279 278 278 278 278 278 278 277
285 285 286 286 286 286 286 285 285 285 285 284 284 284 284 284 285 285 285 285 285 285 285 284 284 284 283 282 281 281 282 282 281 280 279 278 278 277 277 277 277 277
285 285 285 285 285 285 285 285 285 285 285 284 284 284 284 284 285 285 285 285 285 285 285 284 284 283 282 281 280 280 281 281 281 280 279 278 277 277 277 277 277 277
284 284 284 284 285 285 285 285 285 285 284 284 284 284 284 285 285 285 285 285 285 285 284 284 284 283 282 280 280 280 279 279 280 279 278 277 277 277 277 277 276 276
283 283 284 284 284 284 285 285 285 284 284 284 284 285 285 285 285 285 285 285 285 284 284 284 283 283 282 280 280 280 279 278 279 278 278 277 277 276 276 276 275 275
283 283 283 283 284 284 284 284 284 284 284 284 284 285 285 285 285 285 285 285 285 284 284 283 283 282 282 281 280 279 278 279 279 278 277 277 276 276 275 275 275 275
283 283 283 283 284 284 284 284 284 284 284 284 285 284 284 285 285 285 285 285 284 284 284 283 282 282 282 281 280 279 278 279 279 278 277 277 276 275 275 275 274 274
284 283 283 283 283 284 284 284 284 284 284 285 285 285 285 285 285 285 285 284 284 284 284 283 282 282 282 281 280 278 278 279 279 278 277 276 276 275 274 274 273 273
284 284 284 283 283 284 284 284 284 284 285 285 285 285 285 285 285 285 285 284 284 283 283 282 282 281 281 281 280 278 278 279 279 278 277 277 276 275 274 273 272 272
285 284 284 283 283 284 284 284 284 284 284 284 284 284 284 284 284 284 284 284 284 283 282 282 281 281 281 280 279 278 277 278 278 278 277 276 275 273 273 272 272 271
Wind_Speed
38 37 37 37 36 35 35 33 32 31 30 28 27 26 24 23 21 20 19 19 18 17 17 15 15 14 13 13 11 11 11 11 11 11 9 9 9 9 9 8 7 7
37 37 37 37 36 35 33 32 31 30 29 27 26 26 24 23 21 20 19 18 17 16 16 14 13 12 12 11 10 9 10 9 9 9 7 7 7 7 7 7 6 5
37 37 37 36 36 35 33 32 30 29 28 27 26 25 25 23 22 20 18 17 17 16 14 13 12 11 10 10 9 8 8 7 7 7 5 5 6 5 5 5 4 4
38 37 37 36 36 35 33 32 30 29 28 27 26 25 24 23 21 20 18 17 16 15 14 12 11 11 10 9 8 7 6 5 5 5 3 3 4 4 4 3 3 2
38 38 37 36 35 34 33 32 30 29 28 28 27 25 24 23 21 20 19 17 15 14 13 12 11 10 9 8 7 6 5 4 4 3 2 2 3 3 2 2 1 1
38 38 37 36 35 34 33 31 30 30 29 28 27 25 24 22 21 20 19 17 16 14 13 12 11 10 9 7 6 5 4 3 3 3 2 1 2 1 1 1 0 1
39 38 38 37 35 34 33 32 31 30 29 28 26 25 23 22 21 19 18 17 16 15 13 12 11 10 8 7 5 4 4 3 3 3 2 2 1 1 1 1 1 2
39 39 38 37 36 34 33 32 31 30 29 28 26 25 23 22 21 20 18 17 16 15 14 13 11 10 9 7 6 5 4 3 3 3 2 2 2 2 2 2 3 3
40 39 39 38 37 35 34 33 32 31 29 28 27 26 24 22 21 20 19 18 17 16 14 13 12 10 9 7 6 5 3 3 3 3 3 3 3 4 4 3 3 3
41 40 40 39 37 36 35 34 33 32 30 29 28 27 25 23 22 21 20 19 18 17 15 14 12 10 9 7 5 4 3 2 2 3 3 4 4 4 4 4 3 4
41 41 40 39 38 37 35 34 34 33 31 30 29 28 26 25 23 22 20 19 18 17 16 14 12 10 8 6 4 3 2 2 3 4 4 4 4 4 4 5 5 5
41 42 41 40 38 37 36 35 34 33 32 31 29 28 27 25 24 22 20 19 18 17 15 13 11 9 8 6 5 4 3 4 4 4 5 4 4 4 5 6 6 6
42 42 41 40 39 38 37 36 34 33 32 31 29 28 27 26 24 22 20 18 17 16 14 12 11 10 8 7 6 5 5 5 5 5 5 4 4 5 6 7 7 7
42 41 41 40 39 38 37 36 35 33 32 30 29 28 27 26 24 22 21 19 17 15 14 12 11 10 9 8 6 6 6 6 5 4 4 5 5 6 7 7 8 7
42 41 41 40 40 39 39 37 36 35 33 31 30 29 28 26 24 23 21 20 18 15 14 12 11 11 9 7 7 7 6 5 4 4 4 5 6 7 7 7 7 7
41 41 41 41 41 40 39 38 37 36 34 32 31 30 28 26 25 23 21 20 19 17 15 14 12 11 9 8 8 7 6 4 4 5 5 6 6 6 7 7 6 6
42 42 42 42 42 41 40 39 38 36 35 34 33 32 29 27 26 24 23 21 19 17 16 15 13 11 10 9 9 8 6 4 4 6 6 7 7 7 7 7 7 7
41 42 43 43 43 42 41 40 39 37 37 36 35 32 30 28 26 25 24 22 20 19 17 16 13 12 11 10 9 7 5 5 5 6 8 8 8 8 8 8 9 9
41 42 43 43 43 43 42 41 40 39 39 38 36 33 31 29 27 25 24 22 21 19 18 16 14 13 12 12 10 8 7 7 7 8 9 9 10 10 10 10 10 11
41 42 42 43 43 42 42 41 41 41 40 38 36 34 32 30 28 27 25 24 22 20 18 17 16 15 14 13 11 9 9 10 10 10 10 11 11 11 11 11 11 12
39 40 41 41 42 42 42 42 42 42 41 39 37 35 33 31 30 28 27 25 22 21 20 18 17 16 15 14 12 11 11 12 13 13 12 12 12 12 12 13 12 13
39 40 40 41 42 42 42 43 43 42 41 40 37 35 33 32 31 30 28 26 24 23 22 20 19 18 16 15 14 13 13 14 14 14 13 13 14 14 14 14 13 13
40 40 40 41 43 44 44 45 44 43 41 40 38 36 35 34 33 31 29 27 26 25 24 22 21 19 18 16 16 15 15 15 15 15 15 15 15 15 15 14 13 12
40 41 42 43 44 45 46 46 44 43 42 41 39 38 37 36 34 32 30 29 28 27 25 23 22 21 19 18 17 17 17 16 16 16 16 16 16 16 16 15 13 11
41 42 43 43 45 46 46 46 45 44 43 42 40 39 38 37 36 34 32 31 30 29 26 24 23 22 21 20 19 18 18 18 17 17 17 18 17 17 17 15 12 10
42 43 44 44 45 45 45 45 45 44 43 42 41 40 39 38 37 36 35 33 32 30 28 26 25 24 22 21 20 19 19 19 19 18 18 18 18 18 17 14 11 9
Wind_Direction
157 157 156 155 153 152 149 147 145 142 140 139 137 136 135 134 135 135 131 129 126 121 118 116 113 110 107 105 101 98 96 95 93 93 91 87 88 89 88 89 88 85
161 160 160 158 156 154 151 149 147 144 142 142 141 140 139 139 140 139 135 131 127 123 120 118 115 112 108 105 102 99 96 94 93 95 94 91 90 89 87 86 84 82
165 165 163 161 158 155 153 151 149 147 146 146 145 144 143 143 143 141 138 134 129 126 124 122 119 118 114 110 108 102 97 96 95 97 98 98 94 90 88 87 87 86
169 168 167 164 160 157 155 153 152 152 151 150 149 148 147 146 146 144 142 138 134 130 130 129 126 124 119 114 113 107 102 104 107 107 112 112 106 100 98 91 80 76
172 171 169 166 162 159 158 157 156 156 155 154 153 152 151 150 150 148 145 143 140 137 137 136 132 129 126 120 118 116 115 121 129 135 144 136 125 113 106 101 67 50
175 174 172 169 165 162 162 161 160 159 159 157 156 155 155 154 153 151 150 148 145 143 142 142 140 134 131 127 128 133 140 150 158 164 176 169 148 138 126 134 249 292
178 177 174 171 168 166 165 164 163 162 161 160 159 158 158 157 157 155 153 152 150 148 147 147 145 140 135 137 144 152 163 174 182 187 201 215 213 237 235 220 239 246
180 179 176 173 170 169 168 167 166 165 164 163 162 161 162 162 160 158 157 156 154 153 153 151 148 145 143 147 156 163 171 181 196 213 227 236 238 252 255 242 237 243
182 181 178 175 173 172 171 169 168 167 167 166 165 164 165 165 164 162 161 160 159 158 158 154 151 149 148 150 157 164 174 189 213 233 241 245 245 248 251 246 246 257
183 181 179 177 176 175 173 172 170 170 170 170 169 168 167 167 168 167 165 164 164 163 160 156 152 150 149 151 157 166 185 209 231 244 246 246 248 250 256 263 267 269
184 182 180 179 178 176 175 174 173 173 172 173 172 170 169 170 171 171 170 168 169 166 160 156 153 149 150 153 163 177 200 230 242 249 252 250 252 259 267 274 278 279
184 183 181 180 180 178 177 177 176 175 175 175 175 173 171 173 174 174 172 173 174 168 160 157 154 151 155 161 172 185 206 233 240 245 252 252 255 264 269 275 277 278
186 184 182 182 181 180 179 179 178 178 178 177 177 175 174 175 176 174 173 177 178 171 162 160 156 157 164 169 176 190 206 224 234 241 254 261 266 269 266 269 273 272
186 185 184 183 182 181 181 180 180 180 180 179 179 179 178 178 176 174 174 179 182 175 165 162 162 166 172 173 179 195 208 222 234 244 258 266 265 267 263 261 268 273
186 185 185 185 184 183 183 183 182 181 181 182 183 183 182 179 177 176 177 180 182 176 170 170 172 173 174 179 190 202 212 224 239 249 259 262 257 257 260 262 269 278
186 186 186 186 186 186 185 185 184 183 183 184 186 187 184 181 180 180 181 183 183 178 176 178 179 178 179 189 201 210 217 228 250 262 263 262 262 261 269 278 283 287
187 188 187 188 188 187 187 187 186 185 185 187 190 189 185 183 183 183 184 187 186 182 182 184 184 183 187 198 211 218 224 234 255 272 276 276 279 282 286 290 293 295
189 189 189 189 189 189 189 189 187 187 189 191 192 190 187 186 186 187 188 190 189 186 187 188 187 190 196 205 216 226 243 261 270 278 282 285 289 291 292 293 295 296
190 190 190 190 190 191 191 190 190 191 193 194 194 190 189 189 189 191 193 193 193 191 191 192 192 197 203 208 216 226 245 266 278 281 281 284 287 289 291 293 294 295
192 192 191 191 191 192 193 193 194 195 195 196 195 192 191 190 192 195 197 198 198 197 197 198 198 202 207 209 214 222 235 253 268 274 276 280 283 285 288 290 292 292
194 193 193 192 193 194 195 196 197 199 199 198 197 195 193 193 195 198 200 200 201 202 203 204 205 207 209 212 217 222 230 243 257 265 270 275 279 282 284 285 286 284
196 195 194 194 195 196 198 200 201 201 201 200 199 198 197 198 200 202 203 203 204 206 207 207 209 211 212 214 219 223 229 240 251 259 265 271 276 280 279 279 279 278
198 197 196 196 197 198 200 202 203 203 203 202 201 201 200 202 204 205 206 207 208 210 211 210 212 214 215 217 221 224 229 240 249 256 263 269 273 275 274 274 274 274
201 200 200 200 200 202 203 204 205 205 205 205 204 204 204 205 206 207 208 210 212 214 214 213 215 217 217 219 223 225 231 241 249 255 261 266 268 269 269 270 271 275
205 205 205 204 204 205 205 206 207 208 208 208 208 208 209 209 209 209 211 212 214 216 216 215 217 220 221 222 224 227 233 242 249 253 258 263 265 266 266 265 266 273
208 209 209 209 209 209 208 209 210 210 210 211 211 211 212 213 213 212 214 215 216 216 217 216 218 221 224 225 227 229 234 242 248 252 257 260 263 263 262 260 260 270